�N����,�����b,���ԉ��x,�t���O,���Ԏ��x,�t���O,��󒲎�,�t���O,����,�t���O,�����W,�t���O
2003/6/1,0:00:00,22.6,0,61.7,0,21.3,0,20.2,0,22.8,0
2003/6/1,0:15:00,22.6,0,62.1,0,21.3,0,20.2,0,22.7,0
2003/6/1,0:30:00,22.5,0,62.3,0,21.3,0,20.2,0,22.7,0
2003/6/1,0:45:00,22.5,0,62.3,0,21.3,0,20.2,0,22.7,0
2003/6/1,1:00:00,22.5,0,62,0,21.3,0,20.3,0,22.7,0
2003/6/1,1:15:00,22.6,0,61.8,0,21.3,0,20.3,0,22.7,0
2003/6/1,1:30:00,22.5,0,62,0,21.3,0,20.3,0,22.7,0
2003/6/1,1:45:00,22.5,0,62.4,0,21.3,0,20.3,0,22.6,0
2003/6/1,2:00:00,22.5,0,62.4,0,21.2,0,20.4,0,22.7,0
2003/6/1,2:15:00,22.5,0,62.5,0,21.2,0,20.4,0,22.6,0
2003/6/1,2:30:00,22.5,0,62.6,0,21.2,0,20.4,0,22.6,0
2003/6/1,2:45:00,22.5,0,62.4,0,21.2,0,20.4,0,22.6,0
2003/6/1,3:00:00,22.5,0,62.4,0,21.2,0,20.4,0,22.6,0
2003/6/1,3:15:00,22.4,0,62.4,0,21.2,0,20.5,0,22.5,0
2003/6/1,3:30:00,22.4,0,62.4,0,21.2,0,20.5,0,22.5,0
2003/6/1,3:45:00,22.4,0,62.4,0,21.2,0,20.5,0,22.5,0
2003/6/1,4:00:00,22.4,0,62.6,0,21.2,0,20.5,0,22.5,0
2003/6/1,4:15:00,22.4,0,62.8,0,21.2,0,20.5,0,22.5,0
2003/6/1,4:30:00,22.4,0,62.9,0,21.1,0,20.5,0,22.4,0
2003/6/1,4:45:00,22.3,0,63.5,0,21.1,0,20.5,0,22.4,0
2003/6/1,5:00:00,22.3,0,63.2,0,21.1,0,20.6,0,22.4,0
2003/6/1,5:15:00,22.3,0,63.7,0,21.1,0,18.4,0,22.4,0
2003/6/1,5:30:00,22.3,0,64.6,0,21.1,0,18.5,0,22.3,0
2003/6/1,5:45:00,22.2,0,64.3,0,21.1,0,18.7,0,22.3,0
2003/6/1,6:00:00,22.2,0,64.3,0,21.1,0,18.7,0,22.3,0
2003/6/1,6:15:00,22.2,0,64.3,0,21.1,0,18.8,0,22.2,0
2003/6/1,6:30:00,22.2,0,64.5,0,21.1,0,18.9,0,22.2,0
2003/6/1,6:45:00,22.2,0,64.5,0,21,0,18.9,0,22.2,0
2003/6/1,7:00:00,22.2,0,64.8,0,21,0,18.9,0,22.2,0
2003/6/1,7:15:00,22.1,0,64.9,0,21,0,19,0,22.1,0
2003/6/1,7:30:00,22.1,0,65.1,0,21,0,18.1,0,22.1,0
2003/6/1,7:45:00,22.1,0,75.9,0,21,0,18.2,0,26.9,0
2003/6/1,8:00:00,22.1,0,77.8,0,21,0,18.3,0,25.2,0
2003/6/1,8:15:00,21.9,0,78.4,0,21,0,18.4,0,23.2,0
2003/6/1,8:30:00,21.9,0,78.7,0,21,0,15,0,22.2,0
2003/6/1,8:45:00,21.8,0,79.2,0,21,0,15.1,0,21.8,0
2003/6/1,9:00:00,21.7,0,80.2,0,21,0,15.3,0,21.6,0
2003/6/1,9:15:00,21.7,0,79.9,0,21,0,15.5,0,21.5,0
2003/6/1,9:30:00,21.6,0,80.3,0,21,0,15.8,0,21.4,0
2003/6/1,9:45:00,21.6,0,81.2,0,21,0,16,0,21.5,0
2003/6/1,10:00:00,21.5,0,81.5,0,21,0,16.2,0,21.4,0
2003/6/1,10:15:00,21.6,0,81,0,21,0,15.5,0,21.4,0
2003/6/1,10:30:00,21.5,0,81.6,0,21,0,15.6,0,21.4,0
2003/6/1,10:45:00,21.4,0,81,0,21,0,15.8,0,21.7,0
2003/6/1,11:00:00,21.3,0,80.6,0,21,0,15.9,0,22,0
2003/6/1,11:15:00,21.2,0,80.1,0,21,0,16.2,0,22.1,0
2003/6/1,11:30:00,21.1,0,80.2,0,20.9,0,16.7,0,22.1,0
2003/6/1,11:45:00,21,0,80,0,20.9,0,16.8,0,22.1,0
2003/6/1,12:00:00,20.7,0,79.9,0,20.9,0,17,0,22,0
2003/6/1,12:15:00,20.6,0,79.8,0,20.9,0,17.1,0,22.4,0
2003/6/1,12:30:00,20.7,0,79.7,0,20.8,0,17.2,0,25.2,0
2003/6/1,12:45:00,20.7,0,79.5,0,20.8,0,17.3,0,23.6,0
2003/6/1,13:00:00,20.7,0,79.7,0,20.8,0,17.4,0,22.8,0
2003/6/1,13:15:00,20.4,0,80.2,0,20.7,0,17.5,0,22.3,0
2003/6/1,13:30:00,20.9,0,76.2,0,20.7,0,17.6,0,22,0
2003/6/1,13:45:00,21.2,0,73.7,0,20.7,0,17.2,0,21.9,0
2003/6/1,14:00:00,21.1,0,73,0,20.7,0,17.3,0,21.8,0
2003/6/1,14:15:00,21.1,0,72.5,0,20.5,0,17.4,0,21.4,0
2003/6/1,14:30:00,21.1,0,72.1,0,20.4,0,17.5,0,21.1,0
2003/6/1,14:45:00,21.1,0,71.3,0,20.3,0,17.6,0,20.9,0
2003/6/1,15:00:00,21.1,0,72.8,0,20.3,0,17.7,0,20.9,0
2003/6/1,15:15:00,21.2,0,71,0,20.3,0,17.7,0,21.1,0
2003/6/1,15:30:00,21.1,0,70.8,0,20.3,0,17.8,0,21.6,0
2003/6/1,15:45:00,21.2,0,70.4,0,20.4,0,17.9,0,21.8,0
2003/6/1,16:00:00,21.2,0,70.3,0,20.4,0,18,0,21.8,0
2003/6/1,16:15:00,21.2,0,70.1,0,20.4,0,18,0,21.9,0
2003/6/1,16:30:00,21.2,0,69.9,0,20.4,0,18.1,0,21.8,0
2003/6/1,16:45:00,21.1,0,69.8,0,20.4,0,18.1,0,21.7,0
2003/6/1,17:00:00,21.1,0,69.5,0,20.3,0,18.2,0,21.6,0
2003/6/1,17:15:00,21.1,0,69.2,0,20.3,0,18.2,0,21.5,0
2003/6/1,17:30:00,21.1,0,69.1,0,20.3,0,18.3,0,21.5,0
2003/6/1,17:45:00,21.1,0,69.1,0,20.3,0,18.4,0,21.5,0
2003/6/1,18:00:00,21.1,0,68.8,0,20.3,0,18.4,0,21.4,0
2003/6/1,18:15:00,21,0,68.6,0,20.2,0,18.4,0,21.4,0
2003/6/1,18:30:00,21,0,68.6,0,20.2,0,18.5,0,21.3,0
2003/6/1,18:45:00,21,0,68.6,0,20.2,0,18.5,0,21.3,0
2003/6/1,19:00:00,21,0,68.4,0,20.2,0,18.6,0,21.2,0
2003/6/1,19:15:00,21,0,68,0,20.1,0,18.6,0,21.1,0
2003/6/1,19:30:00,21,0,68.1,0,20.1,0,18.6,0,21.1,0
2003/6/1,19:45:00,20.9,0,68.8,0,20,0,18.7,0,21.8,0
2003/6/1,20:00:00,21,0,68.3,0,19.9,0,18.7,0,23.1,0
2003/6/1,20:15:00,20.9,0,68.6,0,19.9,0,18.7,0,21.8,0
2003/6/1,20:30:00,21,0,68.3,0,19.9,0,18.8,0,22.2,0
2003/6/1,20:45:00,21,0,68.2,0,19.9,0,18.8,0,22.2,0
2003/6/1,21:00:00,20.9,0,68.1,0,19.9,0,18.8,0,22.1,0
2003/6/1,21:15:00,20.9,0,68,0,19.9,0,18.8,0,21.9,0
2003/6/1,21:30:00,20.8,0,68.1,0,19.9,0,18.8,0,21.8,0
2003/6/1,21:45:00,20.7,0,68.3,0,19.8,0,18.9,0,21.5,0
2003/6/1,22:00:00,20.7,0,68.3,0,19.8,0,18.9,0,21.4,0
2003/6/1,22:15:00,20.6,0,68.2,0,19.8,0,17.7,0,21.1,0
2003/6/1,22:30:00,20.6,0,68.1,0,19.8,0,17.7,0,21.1,0
2003/6/1,22:45:00,20.5,0,68,0,19.7,0,17.8,0,21.2,0
2003/6/1,23:00:00,20.5,0,68,0,19.7,0,17.9,0,21.2,0
2003/6/1,23:15:00,20.4,0,67.7,0,19.7,0,17.9,0,21,0
2003/6/1,23:30:00,20.4,0,67.7,0,19.7,0,18,0,20.8,0
2003/6/1,23:45:00,20.3,0,67.8,0,19.7,0,18,0,20.7,0
2003/6/2,0:00:00,20.3,0,67.6,0,19.6,0,18.1,0,20.6,0
2003/6/2,0:15:00,20.2,0,67.5,0,19.6,0,18.1,0,20.5,0
2003/6/2,0:30:00,20.2,0,67.5,0,19.6,0,18.1,0,20.4,0
2003/6/2,0:45:00,20.2,0,67.3,0,19.5,0,18.2,0,20.4,0
2003/6/2,1:00:00,20.1,0,67.3,0,19.5,0,18.2,0,20.3,0
2003/6/2,1:15:00,20.1,0,67.3,0,19.5,0,18.2,0,20.2,0
2003/6/2,1:30:00,20,0,67.2,0,19.5,0,18.3,0,20.1,0
2003/6/2,1:45:00,20,0,67.1,0,19.5,0,18.3,0,20,0
2003/6/2,2:00:00,20,0,66.9,0,19.4,0,18.3,0,19.9,0
2003/6/2,2:15:00,19.9,0,66.8,0,19.4,0,18.3,0,19.9,0
2003/6/2,2:30:00,19.9,0,66.9,0,19.4,0,18.4,0,19.8,0
2003/6/2,2:45:00,19.8,0,66.8,0,19.4,0,18.4,0,19.8,0
2003/6/2,3:00:00,19.8,0,66.8,0,19.3,0,18.4,0,19.8,0
2003/6/2,3:15:00,19.8,0,66.8,0,19.3,0,18.4,0,19.7,0
2003/6/2,3:30:00,19.8,0,66.7,0,19.3,0,18.5,0,19.7,0
2003/6/2,3:45:00,19.7,0,66.7,0,19.2,0,18.5,0,19.6,0
2003/6/2,4:00:00,19.7,0,66.8,0,19.2,0,18.5,0,19.5,0
2003/6/2,4:15:00,19.7,0,66.7,0,19.2,0,18.5,0,19.5,0
2003/6/2,4:30:00,19.6,0,66.8,0,19.2,0,18.5,0,19.5,0
2003/6/2,4:45:00,19.6,0,66.8,0,19.1,0,18.5,0,19.5,0
2003/6/2,5:00:00,19.6,0,66.8,0,19.1,0,18.5,0,19.4,0
2003/6/2,5:15:00,19.6,0,66.8,0,19.1,0,18.5,0,19.4,0
2003/6/2,5:30:00,19.5,0,66.8,0,19.1,0,18.5,0,19.4,0
2003/6/2,5:45:00,19.5,0,66.7,0,19,0,18.6,0,19.4,0
2003/6/2,6:00:00,19.4,0,66.7,0,19,0,18.6,0,19.5,0
2003/6/2,6:15:00,19.4,0,66.7,0,19,0,18.6,0,19.5,0
2003/6/2,6:30:00,19.4,0,66.6,0,19,0,18.6,0,19.4,0
2003/6/2,6:45:00,19.4,0,66.9,0,19,0,18.6,0,19.4,0
2003/6/2,7:00:00,19.6,0,67.4,0,19,0,18.6,0,22.3,0
2003/6/2,7:15:00,19.8,0,66.7,0,19,0,18.6,0,21.3,0
2003/6/2,7:30:00,19.4,0,68.4,0,19,0,18.6,0,20.7,0
2003/6/2,7:45:00,19.3,0,68.4,0,19,0,15.6,0,20.4,0
2003/6/2,8:00:00,19.3,0,68.2,0,19,0,15.7,0,20.1,0
2003/6/2,8:15:00,19.3,0,68.2,0,19,0,15.8,0,20,0
2003/6/2,8:30:00,19.4,0,67.6,0,19.1,0,15.9,0,19.9,0
2003/6/2,8:45:00,19.4,0,68,0,19,0,16.1,0,19.8,0
2003/6/2,9:00:00,19.5,0,67.1,0,19.1,0,16.2,0,19.8,0
2003/6/2,9:15:00,19.5,0,65.6,0,19.1,0,16.3,0,19.8,0
2003/6/2,9:30:00,19.7,0,63.8,0,19.1,0,16.4,0,19.8,0
2003/6/2,9:45:00,19.8,0,63.8,0,19.2,0,16.5,0,19.9,0
2003/6/2,10:00:00,19.8,0,64.7,0,19.2,0,16.6,0,19.9,0
2003/6/2,10:15:00,20.1,0,65.3,0,19.2,0,16.6,0,20,0
2003/6/2,10:30:00,20.2,0,65.5,0,19.2,0,16.1,0,20.1,0
2003/6/2,10:45:00,20.2,0,65.6,0,19.3,0,16.2,0,20.2,0
2003/6/2,11:00:00,20.2,0,66.5,0,19.3,0,16.3,0,20.3,0
2003/6/2,11:15:00,20.2,0,65,0,19.3,0,16.4,0,20.4,0
2003/6/2,11:30:00,20.3,0,63.7,0,19.3,0,16.5,0,20.5,0
2003/6/2,11:45:00,20.4,0,63.7,0,19.3,0,16.6,0,20.6,0
2003/6/2,12:00:00,20.4,0,64,0,19.4,0,16.7,0,20.6,0
2003/6/2,12:15:00,20.5,0,64.1,0,19.4,0,16.8,0,20.6,0
2003/6/2,12:30:00,20.5,0,64.1,0,19.4,0,16.8,0,20.7,0
2003/6/2,12:45:00,20.6,0,64.1,0,19.4,0,16.9,0,20.8,0
2003/6/2,13:00:00,20.7,0,64,0,19.4,0,16.9,0,20.8,0
2003/6/2,13:15:00,20.7,0,63.8,0,19.5,0,17,0,20.9,0
2003/6/2,13:30:00,20.8,0,63.9,0,19.5,0,17.1,0,21,0
2003/6/2,13:45:00,20.9,0,63.7,0,19.5,0,17.2,0,21.1,0
2003/6/2,14:00:00,20.9,0,63.9,0,19.5,0,17.2,0,21.1,0
2003/6/2,14:15:00,21.1,0,63.2,0,19.6,0,17.3,0,21.1,0
2003/6/2,14:30:00,21.1,0,63.4,0,19.6,0,17.4,0,21.2,0
2003/6/2,14:45:00,21.2,0,63.1,0,19.7,0,17.4,0,21.3,0
2003/6/2,15:00:00,21.3,0,63,0,19.7,0,17.5,0,21.4,0
2003/6/2,15:15:00,21.4,0,62.8,0,19.8,0,17.6,0,21.4,0
2003/6/2,15:30:00,21.5,0,62.7,0,19.8,0,17.6,0,21.5,0
2003/6/2,15:45:00,21.5,0,62.7,0,19.9,0,17.7,0,21.6,0
2003/6/2,16:00:00,21.6,0,62.6,0,19.9,0,17.8,0,21.7,0
2003/6/2,16:15:00,21.6,0,62.5,0,19.9,0,17.8,0,21.7,0
2003/6/2,16:30:00,21.7,0,62.4,0,19.9,0,17.9,0,21.8,0
2003/6/2,16:45:00,21.7,0,62.3,0,19.9,0,17.9,0,21.8,0
2003/6/2,17:00:00,21.7,0,62.3,0,20,0,18,0,21.8,0
2003/6/2,17:15:00,21.7,0,62.1,0,19.9,0,18.1,0,21.9,0
2003/6/2,17:30:00,21.7,0,62.1,0,19.9,0,18.1,0,21.9,0
2003/6/2,17:45:00,21.8,0,61.7,0,19.9,0,18.2,0,21.8,0
2003/6/2,18:00:00,21.7,0,61.7,0,19.9,0,18.2,0,21.9,0
2003/6/2,18:15:00,21.7,0,62,0,19.9,0,18.2,0,21.9,0
2003/6/2,18:30:00,21.7,0,62.1,0,19.9,0,18.2,0,21.9,0
2003/6/2,18:45:00,21.7,0,62.1,0,19.9,0,18.3,0,22,0
2003/6/2,19:00:00,21.7,0,62.2,0,19.9,0,18.3,0,22,0
2003/6/2,19:15:00,21.8,0,62,0,19.9,0,18.4,0,21.9,0
2003/6/2,19:30:00,21.8,0,62,0,19.9,0,18.4,0,21.9,0
2003/6/2,19:45:00,21.8,0,62.1,0,19.9,0,18.4,0,23,0
2003/6/2,20:00:00,21.9,0,62.1,0,19.9,0,18.5,0,26.3,0
2003/6/2,20:15:00,21.8,0,62.9,0,19.9,0,18.5,0,24.7,0
2003/6/2,20:30:00,21.8,0,62.7,0,20,0,18.5,0,23.7,0
2003/6/2,20:45:00,21.7,0,62.9,0,20,0,18.5,0,23.1,0
2003/6/2,21:00:00,21.7,0,62.8,0,19.9,0,18.6,0,22.8,0
2003/6/2,21:15:00,21.6,0,63.1,0,19.9,0,16.6,0,22.6,0
2003/6/2,21:30:00,21.5,0,63.3,0,19.9,0,16.7,0,22.4,0
2003/6/2,21:45:00,21.4,0,63.6,0,19.9,0,16.9,0,22.2,0
2003/6/2,22:00:00,21.4,0,63.4,0,19.9,0,17,0,22.1,0
2003/6/2,22:15:00,21.3,0,63.2,0,19.8,0,17.1,0,22,0
2003/6/2,22:30:00,21.2,0,63.6,0,19.8,0,17.2,0,21.7,0
2003/6/2,22:45:00,21.1,0,63.1,0,19.8,0,17.3,0,21.6,0
2003/6/2,23:00:00,21.1,0,63.2,0,19.7,0,17.4,0,21.6,0
2003/6/2,23:15:00,21,0,63.2,0,19.7,0,17.4,0,21.7,0
2003/6/2,23:30:00,20.9,0,63.2,0,19.7,0,17.5,0,21.6,0
2003/6/2,23:45:00,20.9,0,63.1,0,19.7,0,17.6,0,21.5,0
2003/6/3,0:00:00,20.8,0,63.1,0,19.7,0,17.6,0,21.4,0
2003/6/3,0:15:00,20.8,0,63.1,0,19.6,0,17.7,0,21.3,0
2003/6/3,0:30:00,20.7,0,63.2,0,19.6,0,17.8,0,21.3,0
2003/6/3,0:45:00,20.6,0,63.2,0,19.6,0,17.8,0,21.1,0
2003/6/3,1:00:00,20.5,0,63.3,0,19.5,0,17.9,0,21.1,0
2003/6/3,1:15:00,20.5,0,63.2,0,19.5,0,17.9,0,21,0
2003/6/3,1:30:00,20.4,0,63.3,0,19.5,0,17.9,0,21,0
2003/6/3,1:45:00,20.3,0,63.4,0,19.4,0,18,0,20.9,0
2003/6/3,2:00:00,20.3,0,63.3,0,19.4,0,18,0,20.8,0
2003/6/3,2:15:00,20.2,0,63.4,0,19.4,0,18.1,0,20.7,0
2003/6/3,2:30:00,20.1,0,63.3,0,19.3,0,18.1,0,20.6,0
2003/6/3,2:45:00,20,0,63.4,0,19.3,0,18.1,0,20.6,0
2003/6/3,3:00:00,20,0,63.4,0,19.2,0,18.2,0,20.5,0
2003/6/3,3:15:00,19.9,0,63.4,0,19.2,0,18.2,0,20.4,0
2003/6/3,3:30:00,19.9,0,63.2,0,19.2,0,18.2,0,20.3,0
2003/6/3,3:45:00,19.8,0,63.1,0,19.1,0,18.2,0,20.2,0
2003/6/3,4:00:00,19.8,0,63.1,0,19.1,0,18.3,0,20.2,0
2003/6/3,4:15:00,19.7,0,63.1,0,19,0,18.3,0,20.1,0
2003/6/3,4:30:00,19.7,0,63.2,0,19,0,18.3,0,20,0
2003/6/3,4:45:00,19.6,0,63.2,0,18.9,0,18.3,0,20,0
2003/6/3,5:00:00,19.5,0,63.5,0,18.9,0,18.3,0,19.9,0
2003/6/3,5:15:00,19.5,0,63.7,0,18.9,0,17.4,0,19.9,0
2003/6/3,5:30:00,19.4,0,63.8,0,18.9,0,17.4,0,19.8,0
2003/6/3,5:45:00,19.4,0,63.7,0,18.8,0,17.5,0,19.8,0
2003/6/3,6:00:00,19.3,0,63.6,0,18.8,0,17.5,0,19.7,0
2003/6/3,6:15:00,19.3,0,63.4,0,18.8,0,17.6,0,19.6,0
2003/6/3,6:30:00,19.4,0,63.4,0,18.8,0,17.6,0,19.5,0
2003/6/3,6:45:00,19.4,0,63.1,0,18.8,0,17.6,0,19.4,0
2003/6/3,7:00:00,19.4,0,63.5,0,18.8,0,17.7,0,19.4,0
2003/6/3,7:15:00,19.7,0,63.3,0,18.8,0,17.7,0,19.4,0
2003/6/3,7:30:00,19.4,0,64,0,18.8,0,17.7,0,19.5,0
2003/6/3,7:45:00,19.4,0,64.9,0,18.8,0,17.7,0,19.4,0
2003/6/3,8:00:00,19.5,0,64.7,0,18.8,0,15,0,19.5,0
2003/6/3,8:15:00,19.7,0,64.6,0,18.9,0,15.2,0,19.6,0
2003/6/3,8:30:00,19.8,0,63.7,0,18.9,0,15.3,0,19.6,0
2003/6/3,8:45:00,19.9,0,62.8,0,18.9,0,15.4,0,19.6,0
2003/6/3,9:00:00,20,0,63.1,0,19,0,15.6,0,19.8,0
2003/6/3,9:15:00,20.3,0,62.9,0,19,0,15.7,0,20,0
2003/6/3,9:30:00,20.5,0,63.4,0,19.1,0,15.8,0,20.2,0
2003/6/3,9:45:00,20.5,0,63.3,0,19.2,0,15.8,0,20.4,0
2003/6/3,10:00:00,20.4,0,64.5,0,19.2,0,15.9,0,20.4,0
2003/6/3,10:15:00,20.4,0,64.7,0,19.2,0,16,0,20.3,0
2003/6/3,10:30:00,20.4,0,64.2,0,19.3,0,16.1,0,20.4,0
2003/6/3,10:45:00,20.5,0,64.4,0,19.3,0,16.2,0,20.4,0
2003/6/3,11:00:00,20.5,0,64.3,0,19.4,0,16.3,0,20.5,0
2003/6/3,11:15:00,20.6,0,64.2,0,19.4,0,16.4,0,20.6,0
2003/6/3,11:30:00,20.7,0,64.8,0,19.4,0,16.4,0,20.7,0
2003/6/3,11:45:00,20.8,0,64.8,0,19.5,0,16.5,0,21,0
2003/6/3,12:00:00,20.9,0,63.8,0,19.5,0,16.6,0,21.1,0
2003/6/3,12:15:00,21,0,63.6,0,19.5,0,16.7,0,21.4,0
2003/6/3,12:30:00,21,0,63.1,0,19.6,0,16.8,0,21.5,0
2003/6/3,12:45:00,21.1,0,62.6,0,19.6,0,16.9,0,21.6,0
2003/6/3,13:00:00,21.1,0,61.4,0,19.6,0,16.9,0,21.7,0
2003/6/3,13:15:00,21.2,0,61.1,0,19.6,0,17,0,21.6,0
2003/6/3,13:30:00,21.2,0,60.3,0,19.6,0,17.1,0,21.6,0
2003/6/3,13:45:00,21.3,0,58.7,0,19.6,0,17.2,0,21.7,0
2003/6/3,14:00:00,21.4,0,58.4,0,19.6,0,17.2,0,21.7,0
2003/6/3,14:15:00,21.4,0,57.9,0,19.7,0,17.3,0,21.8,0
2003/6/3,14:30:00,21.6,0,56.9,0,19.7,0,17.4,0,21.8,0
2003/6/3,14:45:00,21.6,0,57.5,0,19.8,0,17.4,0,21.8,0
2003/6/3,15:00:00,21.7,0,56.3,0,19.8,0,17.5,0,21.8,0
2003/6/3,15:15:00,21.8,0,55.7,0,19.9,0,17.5,0,21.9,0
2003/6/3,15:30:00,21.9,0,55,0,19.9,0,17.6,0,22,0
2003/6/3,15:45:00,22,0,55.1,0,20,0,17.7,0,22.1,0
2003/6/3,16:00:00,22.1,0,54.2,0,20,0,17.7,0,22.1,0
2003/6/3,16:15:00,22.1,0,54.5,0,20.1,0,17.8,0,22.2,0
2003/6/3,16:30:00,22.2,0,53.9,0,20.1,0,17.9,0,22.2,0
2003/6/3,16:45:00,22.2,0,53.4,0,20.1,0,17.9,0,22.3,0
2003/6/3,17:00:00,22.2,0,55,0,20.2,0,18,0,22.4,0
2003/6/3,17:15:00,22.2,0,55.5,0,20.2,0,18.1,0,22.5,0
2003/6/3,17:30:00,22.2,0,56.1,0,20.2,0,18.1,0,22.6,0
2003/6/3,17:45:00,22.2,0,56.2,0,20.2,0,18.2,0,22.5,0
2003/6/3,18:00:00,22.2,0,56.5,0,20.2,0,18.2,0,22.5,0
2003/6/3,18:15:00,22.2,0,56.6,0,20.3,0,18.3,0,22.5,0
2003/6/3,18:30:00,22.2,0,56.7,0,20.3,0,18.3,0,22.6,0
2003/6/3,18:45:00,22.2,0,57,0,20.3,0,18.4,0,22.5,0
2003/6/3,19:00:00,22,0,56.8,0,20.2,0,18.4,0,22.4,0
2003/6/3,19:15:00,21.9,0,56.1,0,20.2,0,18.5,0,21.9,0
2003/6/3,19:30:00,21.9,0,56.6,0,20.1,0,18.5,0,21.8,0
2003/6/3,19:45:00,21.9,0,56.6,0,20,0,18.6,0,21.7,0
2003/6/3,20:00:00,22,0,56.4,0,20,0,18.6,0,22.9,0
2003/6/3,20:15:00,22,0,56.4,0,19.9,0,18.6,0,22.5,0
2003/6/3,20:30:00,22,0,56.2,0,19.9,0,18.7,0,22.2,0
2003/6/3,20:45:00,21.9,0,57.4,0,19.9,0,18.7,0,21.8,0
2003/6/3,21:00:00,21.8,0,56.9,0,19.8,0,18.8,0,21.5,0
2003/6/3,21:15:00,21.9,0,55.8,0,19.8,0,18.8,0,21.6,0
2003/6/3,21:30:00,21.9,0,56.4,0,19.9,0,18.9,0,22,0
2003/6/3,21:45:00,21.8,0,56.4,0,19.9,0,18.9,0,22.3,0
2003/6/3,22:00:00,21.7,0,56.9,0,19.9,0,18.9,0,22.3,0
2003/6/3,22:15:00,21.7,0,56.5,0,19.9,0,18.9,0,22.1,0
2003/6/3,22:30:00,21.7,0,56.9,0,20,0,18.9,0,22.1,0
2003/6/3,22:45:00,21.6,0,57.1,0,20,0,19,0,22.2,0
2003/6/3,23:00:00,21.5,0,57.1,0,19.9,0,19,0,22.1,0
2003/6/3,23:15:00,21.4,0,57.6,0,19.9,0,19,0,22.1,0
2003/6/3,23:30:00,21.4,0,57.3,0,19.9,0,19,0,22,0
2003/6/3,23:45:00,21.3,0,57.4,0,19.9,0,19.1,0,21.9,0
2003/6/4,0:00:00,21.2,0,57.6,0,19.8,0,19.1,0,21.8,0
2003/6/4,0:15:00,21.2,0,58.1,0,19.8,0,19.1,0,21.7,0
2003/6/4,0:30:00,21.1,0,58.1,0,19.8,0,19.1,0,21.6,0
2003/6/4,0:45:00,21,0,58.3,0,19.8,0,19.1,0,21.5,0
2003/6/4,1:00:00,20.9,0,58.3,0,19.7,0,19.1,0,21.4,0
2003/6/4,1:15:00,20.9,0,58.3,0,19.7,0,19.1,0,21.4,0
2003/6/4,1:30:00,20.8,0,58.4,0,19.7,0,19.2,0,21.3,0
2003/6/4,1:45:00,20.7,0,58.4,0,19.6,0,19.2,0,21.2,0
2003/6/4,2:00:00,20.6,0,58.4,0,19.6,0,19.2,0,21.1,0
2003/6/4,2:15:00,20.6,0,58.4,0,19.5,0,19.2,0,21.1,0
2003/6/4,2:30:00,20.5,0,58.6,0,19.5,0,19.2,0,21,0
2003/6/4,2:45:00,20.4,0,58.7,0,19.5,0,19.2,0,20.9,0
2003/6/4,3:00:00,20.3,0,58.7,0,19.4,0,19.2,0,20.8,0
2003/6/4,3:15:00,20.3,0,58.9,0,19.4,0,19.2,0,20.7,0
2003/6/4,3:30:00,20.2,0,59,0,19.4,0,19.2,0,20.6,0
2003/6/4,3:45:00,20.1,0,59.1,0,19.3,0,17.3,0,20.5,0
2003/6/4,4:00:00,20,0,59.3,0,19.3,0,17.3,0,20.4,0
2003/6/4,4:15:00,19.9,0,59.4,0,19.2,0,17.4,0,20.3,0
2003/6/4,4:30:00,19.9,0,59.5,0,19.2,0,17.5,0,20.3,0
2003/6/4,4:45:00,19.8,0,59.6,0,19.1,0,17.5,0,20.2,0
2003/6/4,5:00:00,19.7,0,59.6,0,19.1,0,17.6,0,20.1,0
2003/6/4,5:15:00,19.7,0,59.6,0,19.1,0,17.6,0,20,0
2003/6/4,5:30:00,19.7,0,59.7,0,19,0,17.7,0,19.9,0
2003/6/4,5:45:00,19.6,0,59.8,0,19,0,17.7,0,19.9,0
2003/6/4,6:00:00,19.6,0,59.8,0,19,0,17.7,0,19.9,0
2003/6/4,6:15:00,19.5,0,60.1,0,18.9,0,17.8,0,19.7,0
2003/6/4,6:30:00,19.6,0,59.8,0,18.9,0,17.8,0,19.7,0
2003/6/4,6:45:00,19.3,0,59.3,0,18.9,0,17.8,0,19.8,0
2003/6/4,7:00:00,19.5,0,59.4,0,18.9,0,14.6,0,19.9,0
2003/6/4,7:15:00,19.7,0,59.1,0,19,0,14.7,0,19.9,0
2003/6/4,7:30:00,19.5,0,60.8,0,19.1,0,14.8,0,19.9,0
2003/6/4,7:45:00,19.4,0,60.5,0,19.1,0,14.9,0,19.9,0
2003/6/4,8:00:00,19.4,0,59.7,0,19.1,0,15.1,0,19.8,0
2003/6/4,8:15:00,19.6,0,59.5,0,19.1,0,15.2,0,19.8,0
2003/6/4,8:30:00,19.7,0,60,0,19.2,0,15.4,0,19.8,0
2003/6/4,8:45:00,19.8,0,60.8,0,19.2,0,15.5,0,19.8,0
2003/6/4,9:00:00,19.9,0,61,0,19.2,0,15.6,0,19.9,0
2003/6/4,9:15:00,20.1,0,60.9,0,19.2,0,15,0,19.9,0
2003/6/4,9:30:00,20.2,0,61,0,19.3,0,15.1,0,20,0
2003/6/4,9:45:00,20.3,0,61.2,0,19.3,0,15.2,0,20,0
2003/6/4,10:00:00,20.4,0,61.6,0,19.4,0,15.3,0,20.1,0
2003/6/4,10:15:00,20.5,0,61.7,0,19.4,0,15.4,0,20.2,0
2003/6/4,10:30:00,20.5,0,61.8,0,19.4,0,15.5,0,20.4,0
2003/6/4,10:45:00,20.7,0,61.2,0,19.5,0,15.6,0,20.4,0
2003/6/4,11:00:00,20.7,0,61.4,0,19.5,0,15.7,0,20.5,0
2003/6/4,11:15:00,20.8,0,61.3,0,19.5,0,15.9,0,20.6,0
2003/6/4,11:30:00,20.9,0,61.2,0,19.5,0,16,0,20.7,0
2003/6/4,11:45:00,21,0,61.3,0,19.6,0,16.1,0,20.8,0
2003/6/4,12:00:00,21,0,61.3,0,19.6,0,16.2,0,20.9,0
2003/6/4,12:15:00,21.1,0,61,0,19.6,0,16.3,0,20.9,0
2003/6/4,12:30:00,21.2,0,61,0,19.7,0,16.4,0,21,0
2003/6/4,12:45:00,21.3,0,60.8,0,19.7,0,16.5,0,21.1,0
2003/6/4,13:00:00,21.3,0,60.8,0,19.7,0,16.6,0,21.3,0
2003/6/4,13:15:00,21.4,0,60.8,0,19.8,0,16.7,0,21.4,0
2003/6/4,13:30:00,21.5,0,60.8,0,19.8,0,16.8,0,21.6,0
2003/6/4,13:45:00,21.6,0,60.5,0,19.9,0,16.9,0,21.6,0
2003/6/4,14:00:00,21.7,0,60.5,0,19.9,0,16.9,0,21.8,0
2003/6/4,14:15:00,21.7,0,60.4,0,19.9,0,17,0,21.9,0
2003/6/4,14:30:00,21.8,0,60.3,0,20,0,17.1,0,21.9,0
2003/6/4,14:45:00,21.9,0,60.1,0,20.1,0,17.2,0,22,0
2003/6/4,15:00:00,21.9,0,60.1,0,20.1,0,17.3,0,22,0
2003/6/4,15:15:00,21.9,0,60.5,0,20.2,0,15.5,0,22,0
2003/6/4,15:30:00,21.9,0,60.6,0,20.2,0,15.6,0,22,0
2003/6/4,15:45:00,22,0,60.5,0,20.3,0,15.8,0,22.1,0
2003/6/4,16:00:00,22.1,0,60.2,0,20.3,0,16,0,22.4,0
2003/6/4,16:15:00,22.2,0,60.2,0,20.3,0,16,0,22.6,0
2003/6/4,16:30:00,22.2,0,60.3,0,20.4,0,16.2,0,22.8,0
2003/6/4,16:45:00,22.2,0,60.1,0,20.4,0,16.3,0,22.9,0
2003/6/4,17:00:00,22.3,0,60.2,0,20.4,0,16.4,0,22.9,0
2003/6/4,17:15:00,22.3,0,60.1,0,20.4,0,16.5,0,22.8,0
2003/6/4,17:30:00,22.3,0,60.4,0,20.5,0,16.8,0,22.7,0
2003/6/4,17:45:00,22.3,0,60.4,0,20.5,0,16.8,0,22.7,0
2003/6/4,18:00:00,22.3,0,60.5,0,20.5,0,16.9,0,22.7,0
2003/6/4,18:15:00,22.3,0,60.5,0,20.5,0,17,0,22.7,0
2003/6/4,18:30:00,22.3,0,60.7,0,20.5,0,17.2,0,22.6,0
2003/6/4,18:45:00,22.3,0,60.7,0,20.6,0,17.3,0,22.6,0
2003/6/4,19:00:00,22.4,0,60.5,0,20.6,0,17.4,0,22.6,0
2003/6/4,19:15:00,22.3,0,60.9,0,20.6,0,17.5,0,25.3,0
2003/6/4,19:30:00,22.2,0,60.9,0,20.7,0,17.6,0,26.7,0
2003/6/4,19:45:00,22.2,0,61.7,0,20.7,0,17.6,0,23.9,0
2003/6/4,20:00:00,22.2,0,61.6,0,20.8,0,17.7,0,23,0
2003/6/4,20:15:00,22.3,0,61.5,0,20.8,0,16.8,0,22.7,0
2003/6/4,20:30:00,22.3,0,61.9,0,20.8,0,16.9,0,22.5,0
2003/6/4,20:45:00,22.2,0,62.2,0,20.8,0,16.6,0,22.4,0
2003/6/4,21:00:00,22.3,0,62,0,20.8,0,16.9,0,22.6,0
2003/6/4,21:15:00,22.4,0,61.7,0,20.8,0,17,0,22.8,0
2003/6/4,21:30:00,22.4,0,61.2,0,20.8,0,15.9,0,23.5,0
2003/6/4,21:45:00,22.4,0,62,0,20.8,0,16.1,0,24.2,0
2003/6/4,22:00:00,22.3,0,62.5,0,20.8,0,16.3,0,23.8,0
2003/6/4,22:15:00,22.3,0,62.1,0,20.8,0,16.4,0,23.6,0
2003/6/4,22:30:00,22.3,0,62.3,0,20.8,0,16.6,0,23.4,0
2003/6/4,22:45:00,22.2,0,62.1,0,20.7,0,16.8,0,23.2,0
2003/6/4,23:00:00,22.2,0,62.5,0,20.7,0,16.9,0,23.1,0
2003/6/4,23:15:00,22.2,0,62.5,0,20.7,0,17.1,0,22.9,0
2003/6/4,23:30:00,22.1,0,62.5,0,20.7,0,17.2,0,22.8,0
2003/6/4,23:45:00,22,0,62.4,0,20.7,0,17.3,0,22.7,0
2003/6/5,0:00:00,22,0,62.5,0,20.7,0,17.4,0,22.6,0
2003/6/5,0:15:00,22,0,62.8,0,20.7,0,17.5,0,22.6,0
2003/6/5,0:30:00,22,0,62.8,0,20.7,0,17.6,0,22.5,0
2003/6/5,0:45:00,21.9,0,63,0,20.6,0,17.7,0,22.4,0
2003/6/5,1:00:00,21.9,0,62.9,0,20.6,0,17.8,0,22.4,0
2003/6/5,1:15:00,21.8,0,62.8,0,20.6,0,17.9,0,22.3,0
2003/6/5,1:30:00,21.8,0,62.8,0,20.6,0,18,0,22.3,0
2003/6/5,1:45:00,21.8,0,62.9,0,20.6,0,18,0,22.2,0
2003/6/5,2:00:00,21.7,0,63.1,0,20.5,0,18.1,0,22.2,0
2003/6/5,2:15:00,21.7,0,63.1,0,20.5,0,18.2,0,22.1,0
2003/6/5,2:30:00,21.6,0,63.2,0,20.5,0,18.2,0,22,0
2003/6/5,2:45:00,21.6,0,63.5,0,20.5,0,18.3,0,22,0
2003/6/5,3:00:00,21.5,0,63.4,0,20.4,0,18.4,0,21.9,0
2003/6/5,3:15:00,21.5,0,63.4,0,20.4,0,18.4,0,21.9,0
2003/6/5,3:30:00,21.4,0,63.4,0,20.4,0,18.5,0,21.8,0
2003/6/5,3:45:00,21.4,0,63.5,0,20.4,0,18.6,0,21.8,0
2003/6/5,4:00:00,21.3,0,63.5,0,20.3,0,18.6,0,21.7,0
2003/6/5,4:15:00,21.3,0,63.6,0,20.3,0,18.6,0,21.7,0
2003/6/5,4:30:00,21.2,0,63.6,0,20.3,0,18.7,0,21.6,0
2003/6/5,4:45:00,21.2,0,63.7,0,20.3,0,18.7,0,21.6,0
2003/6/5,5:00:00,21.1,0,63.7,0,20.2,0,18.8,0,21.5,0
2003/6/5,5:15:00,21.1,0,63.8,0,20.2,0,18.8,0,21.4,0
2003/6/5,5:30:00,21.1,0,63.8,0,20.2,0,18.8,0,21.3,0
2003/6/5,5:45:00,21,0,64.1,0,20.2,0,17.4,0,21.3,0
2003/6/5,6:00:00,20.9,0,64.5,0,20.1,0,17.5,0,21.2,0
2003/6/5,6:15:00,21,0,65.1,0,20.1,0,17.6,0,21.2,0
2003/6/5,6:30:00,21,0,65,0,20.1,0,17.7,0,21.2,0
2003/6/5,6:45:00,21,0,65,0,20.1,0,17.8,0,21.1,0
2003/6/5,7:00:00,20.5,0,67,0,20.2,0,17.8,0,21.1,0
2003/6/5,7:15:00,20.7,0,66.6,0,20.3,0,17.9,0,20.6,0
2003/6/5,7:30:00,20.7,0,66.7,0,20.4,0,17.3,0,20.5,0
2003/6/5,7:45:00,20.9,0,66,0,20.4,0,17.3,0,20.6,0
2003/6/5,8:00:00,20.8,0,64,0,20.4,0,17.4,0,20.8,0
2003/6/5,8:15:00,20.8,0,63.5,0,20.4,0,17.4,0,20.7,0
2003/6/5,8:30:00,20.9,0,64,0,20.4,0,17.5,0,20.7,0
2003/6/5,8:45:00,21.1,0,64,0,20.4,0,17.6,0,20.8,0
2003/6/5,9:00:00,21.3,0,64.2,0,20.4,0,17.6,0,21,0
2003/6/5,9:15:00,21.4,0,64.5,0,20.4,0,17.7,0,21.2,0
2003/6/5,9:30:00,21.7,0,63.7,0,20.5,0,17.7,0,21.4,0
2003/6/5,9:45:00,21.9,0,63.6,0,20.5,0,17.8,0,21.6,0
2003/6/5,10:00:00,21.9,0,62.7,0,20.6,0,17.9,0,21.8,0
2003/6/5,10:15:00,22.2,0,62.7,0,20.6,0,17.9,0,22,0
2003/6/5,10:30:00,22.3,0,61.7,0,20.7,0,18,0,22.2,0
2003/6/5,10:45:00,22.2,0,62.3,0,20.7,0,18,0,22.3,0
2003/6/5,11:00:00,22.3,0,62.1,0,20.7,0,18.1,0,22.4,0
2003/6/5,11:15:00,22.3,0,62,0,20.8,0,18.2,0,22.4,0
2003/6/5,11:30:00,22.3,0,61.4,0,20.8,0,18.2,0,22.5,0
2003/6/5,11:45:00,22.4,0,61.6,0,20.8,0,18.3,0,22.5,0
2003/6/5,12:00:00,22.5,0,62,0,20.9,0,18.3,0,22.6,0
2003/6/5,12:15:00,22.5,0,62.3,0,20.9,0,18.4,0,22.9,0
2003/6/5,12:30:00,22.6,0,62.1,0,20.9,0,18.4,0,23.2,0
2003/6/5,12:45:00,22.6,0,61.8,0,21,0,18.5,0,23.3,0
2003/6/5,13:00:00,22.7,0,61.4,0,21,0,18.5,0,23.3,0
2003/6/5,13:15:00,22.7,0,61.3,0,21,0,18.6,0,23.2,0
2003/6/5,13:30:00,22.8,0,61.1,0,21,0,18.6,0,23.3,0
2003/6/5,13:45:00,22.9,0,60.6,0,21.1,0,18.7,0,23.3,0
2003/6/5,14:00:00,21.8,0,60.6,0,21.1,0,17.6,0,23.2,0
2003/6/5,14:15:00,21.6,0,58,0,21.1,0,17.7,0,22.9,0
2003/6/5,14:30:00,22.3,0,56.9,0,21.1,0,17.9,0,22.8,0
2003/6/5,14:45:00,22.9,0,57.5,0,21.2,0,18,0,23,0
2003/6/5,15:00:00,23.1,0,58.1,0,21.2,0,18.1,0,23.2,0
2003/6/5,15:15:00,23.2,0,58.6,0,21.2,0,18.1,0,23.4,0
2003/6/5,15:30:00,23.2,0,58.5,0,21.3,0,18.3,0,23.5,0
2003/6/5,15:45:00,23.4,0,58.3,0,21.3,0,18.3,0,23.6,0
2003/6/5,16:00:00,23.4,0,57.8,0,21.3,0,18.4,0,23.7,0
2003/6/5,16:15:00,23.4,0,57.5,0,21.3,0,18.5,0,23.8,0
2003/6/5,16:30:00,23.3,0,57.6,0,21.4,0,16.2,0,23.6,0
2003/6/5,16:45:00,23.4,0,58,0,21.4,0,16.3,0,23.7,0
2003/6/5,17:00:00,23.4,0,58.2,0,21.4,0,16.5,0,23.9,0
2003/6/5,17:15:00,23.4,0,58.4,0,21.4,0,16.6,0,24,0